Location: Unspecified
(48.8656°N, 0.0000°E)
Time: 02:09:42
(UTC+00:00)

Vanguard 3 - Pass Details

Date: 22 June 2019
Orbit: 508 x 3263 km, 33.3° (Epoch: 16 August)

Event Time Altitude Azimuth Distance (km) Brightness Sun altitude
Rises 14:17:02 0° 253° (WSW) 4,989 11.7 53.3°
Reaches altitude 10° 14:21:54 10° 240° (WSW) 3,440 11.2 52.6°
Maximum altitude 14:27:23 20° 197° (SSW) 2,166 10.1 51.8°
Drops below altitude 10° 14:31:21 10° 151° (SSE) 2,364 9.7 51.2°
Sets 14:33:57 0° 133° (SE) 3,032 10.0 50.8°
